Regional Weather Roundup
Issued by NWS Sioux Falls, SD

Home | Current Version | Previous Version | Text Only | Print | Product List | Glossary Off
Versions: 1 2 3 4 5 6 7 8 9 10 11 12 13 14 15 16 17 18 19 20 21 22 23 24 25 26 27 28 29 30 31 32 33 34 35 36 37 38 39 40 41 42 43 44 45 46 47 48 49 50

895
ASUS43 KFSD 300410
RWRFSD

WEATHER ROUNDUP FOR SE SOUTH DAKOTA/SW MINNESOTA/NW IOWA
NATIONAL WEATHER SERVICE SIOUX FALLS SD
1100 PM CDT MON MAY 29 2017

NOTE: "FAIR" INDICATES FEW OR NO CLOUDS BELOW 12,000 FEET WITH NO
SIGNIFICANT WEATHER AND OR OBSTRUCTIONS TO VISIBILITY.


SDZ038>040-050-052>070-300500-
SOUTHEAST SOUTH DAKOTA

CITY           SKY/WX    TMP DP  RH WIND       PRES   REMARKS
BROOKINGS      CLEAR     50  43  77 W6        29.99R
CHAMBERLAIN    PTCLDY    54  38  55 NW5       30.04R
HURON          CLEAR     46  37  71 W8        30.00R
MADISON        FAIR      50  45  81 W6        30.00S
MITCHELL       PTCLDY    56  44  64 W3        30.02R
SIOUX FALLS    CLEAR     52  45  77 W3        30.00R
WINNER         FAIR      55  37  50 NW6       30.06R
YANKTON        CLEAR     55  44  66 CALM      30.02R
$$

MNZ071-072-080-081-089-090-097-098-300500-
SOUTHWEST MINNESOTA

CITY           SKY/WX    TMP DP  RH WIND       PRES   REMARKS
FAIRMONT       CLEAR     52  48  86 W10       29.97R
JACKSON        CLEAR     50  46  87 CALM      29.98S
LUVERNE        CLEAR     52  39  62 W3        30.00R
MARSHALL       PTCLDY    51  45  79 W8        29.96R
MONTEVIDEO     CLOUDY    55  45  67 N7        29.94R
PIPESTONE      CLEAR     52  39  62 W3        29.99R
REDWOOD FALLS  MOCLDY    54  44  69 W9        29.93R
TRACY          CLEAR     54  46  75 W5        29.96S
WINDOM         CLEAR     52  46  82 SW5       29.97S
WORTHINGTON    CLEAR     50  44  80 W8        29.99R
$$

IAZ001>003-012>014-020>022-031-032-NEZ013-014-SDZ071-300500-
NORTHWEST IOWA

CITY           SKY/WX    TMP DP  RH WIND       PRES   REMARKS
CHEROKEE       PTCLDY    53  45  74 CALM      30.01R
DENISON        PTCLDY    55  45  67 CALM      30.04S
ESTHERVILLE    CLEAR     49  49 100 W8        29.97S
LE MARS        PTCLDY    52  45  76 CALM      30.02S
ORANGE CITY    CLEAR     55  43  62 CALM      30.01S
SHELDON        CLEAR     50  41  71 CALM      29.99S
SIOUX CITY     CLEAR     53  43  68 CALM      30.02R
SPENCER        CLEAR     49  43  80 W5        29.99S
STORM LAKE     CLEAR     55  41  58 NW6       30.01S
$$

ABBREVIATIONS USED IN REMARKS
   TC - TEMPERATURE IN CELSIUS
  WCI - WIND CHILL INDEX
   HX - HEAT INDEX
  VSB - VISIBILITY





USA.gov is the U.S. government's official web portal to all federal, state and local government web resources and services.